Regional Weather Roundup
Issued by NWS Green Bay, WI

Home | Current Version | Previous Version | Graphics & Text | Print | Product List | Glossary Off
Versions: 1 2 3 4 5 6 7 8 9 10 11 12 13 14 15 16 17 18 19 20 21 22 23 24 25 26 27 28 29 30 31 32 33 34 35 36 37 38 39 40 41 42 43 44 45 46 47 48 49 50

000
ASUS43 KGRB 182211
RWRGRB

NORTH-CENTRAL AND NORTHEAST WISCONSIN REGIONAL WEATHER ROUNDUP
NATIONAL WEATHER SERVICE GREEN BAY WI
500 PM CDT FRI AUG 18 2017

WIZ005-009-010>012-018-019-182300-
NORTH CENTRAL WISCONSIN

CITY           SKY/WX    TMP DP  RH WIND       PRES   REMARKS
IRONWOOD       PTSUNNY   69  56  62 W7        29.85F
MANITOWISH WTR CLOUDY    67  57  69 NW7       29.86S
ARBOR VITAE    CLOUDY    67  57  69 W5        29.85S
EAGLE RIVER    PTSUNNY   66  54  63 N5        29.85S
LAND O LAKES   MOSUNNY   67  54  63 NW6       29.87S
RHINELANDER    CLOUDY    68  57  68 NW8       29.86S
PHILLIPS       CLOUDY    68  60  74 CALM      29.86S
ANTIGO         CLOUDY    67  57  70 NW7       29.85S
TOMAHAWK         N/A     67  57  71 W3        29.86S
MERRILL        MOSUNNY   66  61  82 W5        29.86S
$$

WIZ013-073-182300-
NORTHEAST WISCONSIN

CITY           SKY/WX    TMP DP  RH WIND       PRES   REMARKS
IRON MOUNTAIN  CLOUDY    65  54  67 NW8       29.82R
MARINETTE      CLOUDY    71  58  63 NW8       29.80R
OCONTO         CLOUDY    71  58  64 NW5       29.79S
$$

WIZ017-030-035>037-045-182300-
CENTRAL WISCONSIN

CITY           SKY/WX    TMP DP  RH WIND       PRES   REMARKS
MEDFORD        CLOUDY    66  58  76 W8        29.87S
WAUSAU         MOSUNNY   67  58  72 NW15      29.84R
MOSINEE        CLOUDY    66  61  82 NW10G17   29.87R
MARSHFIELD     CLOUDY    68  59  73 W9        29.86S
WISC RAPIDS    CLOUDY    70  60  70 NW12      29.87S
STEVENS POINT  CLOUDY    67  60  77 W7        29.86S
WAUPACA        CLOUDY    73  58  60 W7        29.85R
SHAWANO        CLOUDY    73  60  64 W6        29.82R
CLINTONVILLE   MOSUNNY   70  57  64 NW12      29.83S
WAUTOMA        CLOUDY    73  61  65 W13G18    29.85S
$$

WIZ038-039-048-051-182300-
FOX VALLEY

CITY           SKY/WX    TMP DP  RH WIND       PRES   REMARKS
NWS GREEN BAY  PTSUNNY   71  63  75 W9        29.82R
APPLETON       PTSUNNY   72  57  60 W12       29.82S
OSHKOSH        MOSUNNY   73  59  61 NW14      29.83R
FOND DU LAC    PTSUNNY   75  58  55 NW10      29.84R
$$

WIZ022-050-052-182300-
EAST CENTRAL WISCONSIN

CITY           SKY/WX    TMP DP  RH WIND       PRES   REMARKS
EPHRAIM        FAIR      70  59  68 W8        29.79R
WASHINGTON ISL CLOUDY    66  57  71 NW10G20   29.78S
STURGEON BAY   CLOUDY    69  60  73 NW6       29.81R
MANITOWOC      CLOUDY    71  59  65 W13       29.82S
SHEBOYGAN      PTSUNNY   74  62  66 NW8       29.83R
$$

LMZ563-521-522-541>543-182300-
LAKESHORE

STATION/POSITION TIME  TEMP    WIND        PRES    VSBY  WAVE
                       AIR SEA DIR/SP/G                  HT/PER
                 (UTC) (F)     (DEG/KT/KT) (MB)    (MI)  (FT/S)
SHEBOYGAN LKSHOR 2200   73     290/ 14/ 16 1009.7R
KEWAUNEE LKSHORE 2142   71     280/  5/ 10 1008.6R
NORTHPORT PIER   2140   69     320/ 19/ 21 1008.1F
N MID LAKE BUOY  2150   66 67  310/ 14/ 16 1008.5F         2/ 4
S GREEN BAY BUOY 2200   71 71  280/ 10/ 12 1008.8
SISTER BAY LKSHO 2203   71     350/ 17/ 18   N/A
MENOMINEE LKSHOR 2142   72     310/  7/ 10 1008.5R
$$




USA.gov is the U.S. government's official web portal to all federal, state and local government web resources and services.